Location: York
(31.8935°S, 116.7682°E)
Time: 18:57:23
(UTC+08:00)

deb Explorer IX - Pass Details

Date: 29 September 2022
Orbit: 533 x 1057 km, 38.8° (Epoch: 30 November)

Event Time Altitude Azimuth Distance (km) Brightness Sun altitude
Rises 01:11:23 0° 246° (WSW) 2,805 - -52.3°
Reaches altitude 10° 01:13:44 10° 246° (WSW) 1,857 - -52.0°
Maximum altitude 01:17:56 89° 332° (NNW) 545 - -51.6°
Drops below altitude 10° 01:21:59 10° 64° (ENE) 1,787 - -51.1°
Sets 01:24:12 0° 64° (ENE) 2,689 - -50.9°
